Norwood, MA

9:11 PM EDT on July 23, 2017 (GMT -0400)
Norwood Memorial

Weather History for KOWD - December, 2011

Change the Weather History Date:

Tuesday, December 6, 2011

  Actual Average Record
Temperature  
Mean Temperature 55 °F -  
Max Temperature 62 °F 42 °F 73 °F (2001)
Min Temperature 48 °F 24 °F 6 °F (2002)
Degree Days  
Heating Degree Days 10    
Growing Degree Days 5 (Base 50)    
Moisture  
Dew Point 54 °F    
Average Humidity 89    
Maximum Humidity 94    
Minimum Humidity 80    
Precipitation  
Precipitation 0.30 in - - ()
Sea Level Pressure  
Sea Level Pressure 30.02 in    
Wind  
Wind Speed 4 mph (South)    
Max Wind Speed 9 mph    
Max Gust Speed -    
Visibility 7 miles    
Events Rain    
Averages and records for this station are not official NWS values.
T = Trace of Precipitation, MM = Missing Value Source: NWS Daily Summary

Daily Weather History Graph

Daily Weather History Graph

Search for Another Location

Airport or City:

Trip Planner

Search our weather history database for the weather conditions in past years. The results will help you decide how hot, cold, wet, or windy it might be!

Date:

Astronomy

Dec. 06, 2011 Rise Set
Actual Time 6:58 AM EST 4:12 PM EST
Civil Twilight 6:26 AM EST 4:44 PM EST
Nautical Twilight 5:51 AM EST 5:19 PM EST
Astronomical Twilight 5:18 AM EST 5:53 PM EST
Moon 1:40 PM EST (12/6) 3:11 AM EST (12/6)
Length of Visible Light 10h 17m
Length of Day
9h 14m
Waxing Gibbous, 86% of the Moon is Illuminated
Dec 6
Waxing Gibbous
Dec 10
Full
Dec 17
Last Quarter
Dec 24
New
Jan 1
First Quarter

Hourly Weather History & Observations

Time (EST) Temp. Dew Point Humidity Pressure Visibility Wind Dir Wind Speed Gust Speed Precip Events Conditions
12:05 AM 48.2 °F 46.4 °F 93% 30.21 in 2.5 mi Calm Calm - N/A   Overcast
12:12 AM 48.2 °F 46.4 °F 93% 30.22 in 0.8 mi Calm Calm - N/A   Overcast
12:31 AM 48.2 °F 46.4 °F 93% 30.21 in 2.5 mi SSE 4.6 mph - N/A   Mostly Cloudy
12:38 AM 51.8 °F 48.2 °F 88% 30.20 in 10.0 mi SSE 4.6 mph - N/A   Mostly Cloudy
12:53 AM 51.1 °F 48.9 °F 92% 30.20 in 10.0 mi North - - N/A   Overcast
1:53 AM 52.0 °F 48.9 °F 89% 30.18 in 10.0 mi South 4.6 mph - N/A   Scattered Clouds
2:06 AM 53.6 °F 50.0 °F 88% 30.18 in 10.0 mi South 6.9 mph - N/A   Partly Cloudy
3:53 AM 55.0 °F 51.1 °F 86% 30.14 in 10.0 mi SSW 4.6 mph - N/A   Scattered Clouds
4:53 AM 55.0 °F 51.1 °F 86% 30.13 in 10.0 mi Calm Calm - N/A   Overcast
5:53 AM 55.0 °F 52.0 °F 89% 30.12 in 10.0 mi SSE 4.6 mph - N/A   Overcast
6:53 AM 57.0 °F 53.1 °F 87% 30.11 in 10.0 mi South 6.9 mph - N/A   Mostly Cloudy
7:17 AM 57.2 °F 53.6 °F 88% 30.10 in 10.0 mi SSW 8.1 mph - N/A   Scattered Clouds
7:53 AM 57.9 °F 54.0 °F 87% 30.09 in 10.0 mi SSW 9.2 mph - N/A   Scattered Clouds
8:53 AM 59.0 °F 55.0 °F 87% 30.08 in 10.0 mi South 6.9 mph - N/A   Overcast
9:53 AM 60.1 °F 55.0 °F 83% 30.07 in 10.0 mi SSW 8.1 mph - N/A   Overcast
10:18 AM 60.8 °F 55.4 °F 82% 30.06 in 10.0 mi SSW 8.1 mph - N/A   Overcast
11:22 AM 60.8 °F 57.2 °F 88% 30.03 in 4.0 mi SSW 5.8 mph - 0.02 in Rain Light Rain
11:45 AM 60.8 °F 57.2 °F 88% 30.02 in 5.0 mi South 4.6 mph - 0.03 in Rain Light Rain
11:53 AM 61.0 °F 57.0 °F 87% 30.02 in 10.0 mi SSW 4.6 mph - 0.03 in   Overcast
12:01 PM 60.8 °F 57.2 °F 88% 30.01 in 7.0 mi SSW 8.1 mph - N/A   Mostly Cloudy
12:53 PM 62.1 °F 57.0 °F 84% 29.99 in 10.0 mi SSW 8.1 mph - N/A   Overcast
1:53 PM 62.1 °F 55.9 °F 80% 29.98 in 10.0 mi SW 4.6 mph - N/A   Overcast
2:53 PM 62.1 °F 55.9 °F 80% 29.97 in 10.0 mi SSW 4.6 mph - N/A   Overcast
3:53 PM 61.0 °F 55.9 °F 83% 29.97 in 10.0 mi SW 5.8 mph - N/A   Overcast
4:53 PM 59.0 °F 55.9 °F 90% 29.96 in 10.0 mi South 3.5 mph - 0.03 in   Overcast
5:22 PM 59.0 °F 55.4 °F 88% 29.96 in 10.0 mi South 3.5 mph - 0.00 in Rain Light Rain
5:38 PM 59.0 °F 55.4 °F 88% 29.96 in 5.0 mi South 3.5 mph - 0.01 in Rain Light Rain
5:53 PM 59.0 °F 55.9 °F 90% 29.96 in 6.0 mi South 5.8 mph - 0.02 in Rain Light Rain
6:27 PM 59.0 °F 55.4 °F 88% 29.95 in 6.0 mi South 5.8 mph - 0.04 in Rain Light Rain
6:38 PM 59.0 °F 55.4 °F 88% 29.95 in 4.0 mi South 4.6 mph - 0.06 in Rain Light Rain
6:53 PM 59.0 °F 55.9 °F 90% 29.96 in 6.0 mi South 5.8 mph - 0.08 in Rain Light Rain
7:00 PM 59.0 °F 55.4 °F 88% 29.95 in 7.0 mi South 3.5 mph - 0.00 in Rain Light Rain
7:11 PM 59.0 °F 57.2 °F 94% 29.95 in 4.0 mi SSW 5.8 mph - 0.02 in Rain Rain
7:35 PM 59.0 °F 55.4 °F 88% 29.95 in 2.5 mi Calm Calm - 0.08 in Rain Rain
7:43 PM 59.0 °F 57.2 °F 94% 29.95 in 4.0 mi SSW 3.5 mph - 0.09 in Rain Light Rain
7:50 PM 59.0 °F 55.4 °F 88% 29.95 in 4.0 mi Calm Calm - 0.10 in Rain Light Rain
7:53 PM 59.0 °F 55.9 °F 90% 29.95 in 3.0 mi Calm Calm - 0.11 in Rain Light Rain
7:57 PM 59.0 °F 57.2 °F 94% 29.95 in 2.5 mi Calm Calm - 0.00 in Rain Light Rain
8:18 PM 59.0 °F 55.4 °F 88% 29.94 in 3.0 mi Calm Calm - 0.02 in Rain Light Rain
8:36 PM 57.2 °F 55.4 °F 94% 29.94 in 4.0 mi Variable 4.6 mph - 0.03 in Rain Light Rain
8:53 PM 57.9 °F 55.9 °F 93% 29.94 in 9.0 mi Calm Calm - 0.03 in   Overcast
9:05 PM 57.2 °F 55.4 °F 94% 29.93 in 10.0 mi SSE 3.5 mph - N/A   Overcast
9:53 PM 59.0 °F 55.9 °F 90% 29.93 in 9.0 mi SSW 3.5 mph - N/A   Overcast
10:38 PM 59.0 °F 55.4 °F 88% 29.92 in 10.0 mi SSW 5.8 mph - N/A   Overcast
10:53 PM 59.0 °F 55.9 °F 90% 29.91 in 6.0 mi SSW 4.6 mph - N/A   Overcast
11:09 PM 57.2 °F 55.4 °F 94% 29.90 in 9.0 mi South 4.6 mph - 0.00 in   Overcast
11:53 PM 57.9 °F 55.0 °F 90% 29.88 in 10.0 mi South 3.5 mph - 0.00 in   Overcast